[[{"header":{"parameterUnit":"m.s-1","parameterCategory":2,"la1":30.2991,"la2":30.254,"lo1":-89.0895,"lo2":-89.0444,"dy":0.0017,"dx":0.0017,"nx":28,"ny":28,"refTime":"2024-03-15T09:00:00:Z","depth":"0","parameterNumber":2,"parameterNumberName":"U-component_of_CURRENTS"},"data":[0,0,0,0,0,0,0,0,0,0,0,0,0,0,0,0,0,0,0,0,0,0,0,0,0,0,0,0,0,0,0,0,0,0,0,0,0,0,0,0,0,0,0,0,0,0,0,0,0,0,0,0,0,0,0,0,0,0,0.2731,0.2731,0,0.2708,0.2708,0.2708,0.2679,0.2678,0.2677,0.2677,0.2577,0.2575,0.2573,0,0,0,0,0,0,0,0,0,0,0,0,0,0.274,0.274,0.2731,0.2731,0.273,0.2708,0.2708,0.2708,0.2679,0.2678,0.2677,0.2676,0.2577,0.2575,0.2573,0,0,0,0,0,0,0,0,0,0,0,0,0,0.2731,0.274,0.2731,0.271,0.2708,0.2708,0.2708,0.2708,0.2679,0.2678,0.2677,0.2676,0.2578,0.2575,0.2572,0.2577,0,0,0.2563,0.2562,0,0,0,0,0,0,0,0,0.2732,0.2732,0.2714,0.2712,0.2709,0.2692,0.2674,0.2659,0.268,0.2694,0.2677,0.2675,0.2607,0.2601,0.2605,0.2573,0.2568,0.2563,0.2561,0.256,0.2559,0,0,0,0,0,0,0,0.2733,0.2732,0.2725,0.2714,0.271,0.2698,0.2696,0.2672,0.2658,0.2692,0.2689,0.2682,0.2605,0.2609,0.2603,0.2567,0.2563,0.2561,0.2559,0.2558,0.2555,0.2557,0,0,0,0,0,0,0.2731,0.2733,0.2726,0.2724,0.2714,0.2699,0.2697,0.2702,0.266,0.2652,0.2683,0.2681,0.2614,0.2606,0.2599,0.26,0.256,0.2557,0.2556,0.2554,0.2556,0.2557,0,0,0,0,0,0,0.2731,0.2731,0.2727,0.2724,0.2723,0.27,0.2705,0.2702,0.2698,0.2653,0.2644,0.2682,0.2613,0.2603,0.2586,0.2596,0.2556,0.2553,0.2552,0.2554,0.2556,0.2604,0,0,0,0,0,0,0.2732,0.2732,0.2739,0.2725,0.2723,0.2723,0.2706,0.2702,0.2694,0.2691,0.2649,0.264,0.2611,0.2591,0.2583,0.2591,0.2551,0.2549,0.2553,0.2556,0.26,0.2607,0.2614,0,0,0,0,0,0.2733,0.2735,0.274,0.2739,0.2733,0.2723,0.2721,0.2702,0.2695,0.2696,0.2678,0.264,0.2605,0.2589,0.258,0.2587,0.2548,0.2552,0.2555,0.2597,0.2606,0.2614,0,0,0,0,0,0,0.273,0.2731,0.2737,0.2738,0.2733,0.2716,0.2711,0.2706,0.2696,0.2689,0.2654,0.2643,0.264,0.2613,0.2596,0.2602,0.2574,0.2576,0.2609,0.2617,0.2624,0.2615,0.2549,0,0,0,0,0,0.2738,0.2745,0.2743,0.2741,0.2743,0.2733,0.2728,0.2718,0.2703,0.2698,0.2676,0.2658,0.2653,0.2632,0.2624,0.2612,0.2608,0.2617,0.2624,0.263,0.2621,0.2654,0.2663,0.257,0.257,0.257,0,0,0.2735,0.2736,0.2739,0.2742,0.2739,0.2736,0.2728,0.2718,0.2714,0.2687,0.268,0.2683,0.2661,0.2661,0.2656,0.2631,0.2657,0.2635,0.2639,0.2627,0.2659,0.2667,0.2675,0.2572,0.2572,0.2572,0,0,0.2721,0.2737,0.2739,0.2741,0.2737,0.2734,0.2734,0.2729,0.2726,0.2725,0.2719,0.2729,0.2702,0.27,0.2692,0.2731,0.2704,0.2732,0.2739,0.2772,0.278,0.2786,0.2797,0.2804,0.2721,0.2721,0.2721,0,0.2712,0.2722,0.2735,0.2735,0.2734,0.2735,0.2734,0.2733,0.2724,0.2731,0.2723,0.2742,0.2722,0.2733,0.2748,0.2744,0.2753,0.2704,0.278,0.2786,0.2792,0.2802,0.2809,0.2724,0.2723,0.2723,0.2723,0,0.2711,0.2712,0.271,0.272,0.2725,0.272,0.2726,0.2735,0.2739,0.2743,0.277,0.2771,0.2778,0.2785,0.2768,0.2806,0.2797,0.2797,0.2754,0.2804,0.2811,0.2818,0.2727,0.2727,0.2726,0.2725,0,0,0.2691,0.2707,0.2704,0.2708,0.2719,0.272,0.2727,0.274,0.2749,0.2764,0.2789,0.28,0.2818,0.2812,0.2815,0.2834,0.2884,0.2827,0.2827,0.2828,0.2948,0.2862,0.286,0.2902,0.2903,0.2904,0.2937,0,0.2679,0.268,0.2697,0.2693,0.2693,0.2712,0.2722,0.2738,0.2753,0.278,0.2805,0.2827,0.2822,0.2836,0.2861,0.2889,0.2903,0.2874,0.2906,0.2906,0.2817,0.2866,0.2682,0.2689,0.2944,0.2945,0.2945,0,0.2675,0.2672,0.2676,0.2687,0.2693,0.2695,0.2726,0.2737,0.2776,0.2793,0.2829,0.285,0.289,0.2882,0.2941,0.2925,0.2934,0.2948,0.295,0.2852,0.2832,0.2681,0.2691,0.2615,0.2955,0.2954,0.2953,0,0.2663,0.2659,0.2664,0.2668,0.2683,0.2693,0.2706,0.274,0.2761,0.2805,0.2831,0.2882,0.2917,0.295,0.2978,0.2965,0.3043,0.3029,0.2956,0.295,0.2786,0.2763,0.2712,0.3062,0.3062,0.3062,0.3062,0,0.2653,0.2651,0.2654,0.2657,0.2661,0.2683,0.2703,0.2725,0.277,0.2799,0.2838,0.2874,0.2938,0.2987,0.3,0.3,0.3063,0.2958,0.2956,0.2798,0.2776,0.2696,0.2677,0.3063,0.3063,0.3062,0.3062,0,0.265,0.2652,0.2655,0.2661,0.2656,0.2669,0.2696,0.2716,0.2754,0.2798,0.2816,0.2889,0.2947,0.2997,0.3059,0.3017,0.2929,0.3012,0.2811,0.2783,0.2602,0.2593,0.2459,0.2399,0.2918,0.2916,0.2915,0,0.265,0.2648,0.2656,0.265,0.2649,0.2658,0.2665,0.2705,0.2732,0.2798,0.2826,0.2893,0.2935,0.2989,0.2944,0.294,0.2876,0.2734,0.2662,0.2563,0.2554,0.2485,0.2441,0.2473,0.2468,0.2464,0.246,0,0.2641,0.2654,0.2662,0.2647,0.2646,0.2646,0.2659,0.2682,0.2735,0.2756,0.2802,0.2838,0.287,0.2782,0.2763,0.2727,0.2566,0.2645,0.2599,0.224,0.2105,0.2054,0.2482,0.2423,0.2427,0.243,0.2432,0.2433,0.2637,0.2648,0.2655,0.2639,0.2629,0.2621,0.2603,0.2625,0.2647,0.2634,0.2735,0.27,0.261,0.2556,0.252,0.2264,0.2342,0.2128,0.2139,0.2091,0.1973,0.2309,0.2215,0.2217,0.2219,0.2221,0.2222,0,0.2606,0.2627,0.2628,0.2603,0.2556,0.2569,0.2576,0.2532,0.2507,0.2513,0.2509,0.2363,0.2231,0.2132,0.1868,0.1755,0.1696,0.1697,0.1559,0.1557,0.1891,0.1811,0.1554,0.1554,0.1554,0.1554,0.1555,0.1555,0.2599,0.2591,0.2595,0.2514,0.2482,0.2399,0.2383,0.2331,0.2308,0.2153,0.2023,0.1998,0.1861,0.1624,0.1398,0.1368,0.13,0.1201,0.13,0.1529,0.1571,0.161,0.153,0.1219,0.1219,0.0853,0.085,0.0847]},{"header":{"parameterUnit":"m.s-1","parameterCategory":2,"la1":30.2991,"la2":30.254,"lo1":-89.0895,"lo2":-89.0444,"dy":0.0017,"dx":0.0017,"nx":28,"ny":28,"refTime":"2024-03-15T09:00:00:Z","depth":"0","parameterNumber":3,"parameterNumberName":"V-component_of_CURRENTS"},"data":[0,0,0,0,0,0,0,0,0,0,0,0,0,0,0,0,0,0,0,0,0,0,0,0,0,0,0,0,0,0,0,0,0,0,0,0,0,0,0,0,0,0,0,0,0,0,0,0,0,0,0,0,0,0,0,0,0,0,-0.0302,-0.0301,0,-0.0287,-0.0287,-0.0287,-0.0293,-0.0293,-0.0293,-0.0293,-0.0274,-0.0274,-0.0273,0,0,0,0,0,0,0,0,0,0,0,0,0,-0.0309,-0.0309,-0.0302,-0.0301,-0.03,-0.0287,-0.0287,-0.0288,-0.0293,-0.0293,-0.0293,-0.0293,-0.0274,-0.0274,-0.0273,0,0,0,0,0,0,0,0,0,0,0,0,0,-0.0306,-0.031,-0.0302,-0.0298,-0.0297,-0.0287,-0.0287,-0.0288,-0.0293,-0.0293,-0.0293,-0.0293,-0.0274,-0.0274,-0.0273,-0.0273,0,0,-0.0272,-0.0271,0,0,0,0,0,0,0,0,-0.0306,-0.0306,-0.0299,-0.0298,-0.0297,-0.0287,-0.0283,-0.0281,-0.0293,-0.03,-0.0293,-0.0293,-0.0275,-0.0274,-0.0279,-0.0272,-0.0272,-0.0271,-0.0271,-0.0271,-0.0271,0,0,0,0,0,0,0,-0.0307,-0.0307,-0.0301,-0.0298,-0.0297,-0.0288,-0.0288,-0.0283,-0.0292,-0.0299,-0.0298,-0.0289,-0.0275,-0.028,-0.0279,-0.0271,-0.0271,-0.0271,-0.0271,-0.027,-0.0253,-0.0253,0,0,0,0,0,0,-0.03,-0.0307,-0.0301,-0.03,-0.0296,-0.0287,-0.0288,-0.0295,-0.0293,-0.0291,-0.0289,-0.0289,-0.0281,-0.0279,-0.0278,-0.026,-0.0271,-0.027,-0.027,-0.0253,-0.0253,-0.0253,0,0,0,0,0,0,-0.03,-0.03,-0.0302,-0.0298,-0.0297,-0.0287,-0.0295,-0.0294,-0.0294,-0.0284,-0.0283,-0.0288,-0.0281,-0.0279,-0.0267,-0.026,-0.027,-0.027,-0.0253,-0.0253,-0.0253,-0.0236,0,0,0,0,0,0,-0.0301,-0.0301,-0.0308,-0.0298,-0.0297,-0.029,-0.0295,-0.0294,-0.0286,-0.0287,-0.0283,-0.0281,-0.028,-0.0268,-0.0267,-0.026,-0.0269,-0.0254,-0.0253,-0.0253,-0.0237,-0.0235,-0.0234,0,0,0,0,0,-0.0302,-0.0304,-0.0309,-0.0308,-0.0306,-0.0289,-0.0288,-0.0283,-0.0286,-0.0284,-0.0281,-0.0281,-0.0266,-0.0267,-0.0266,-0.0258,-0.0254,-0.0253,-0.0253,-0.0237,-0.0236,-0.0234,0,0,0,0,0,0,-0.0311,-0.0304,-0.0309,-0.0311,-0.0299,-0.0288,-0.0283,-0.0281,-0.0279,-0.0279,-0.0277,-0.0275,-0.0265,-0.0264,-0.0266,-0.0254,-0.0261,-0.026,-0.025,-0.0248,-0.0247,-0.0234,-0.0269,0,0,0,0,0,-0.0316,-0.0317,-0.0307,-0.0307,-0.0302,-0.0295,-0.0288,-0.0284,-0.0275,-0.0275,-0.027,-0.0268,-0.0264,-0.0257,-0.0256,-0.0245,-0.0241,-0.0241,-0.0239,-0.0238,-0.0228,-0.023,-0.0228,-0.0252,-0.0252,-0.0252,0,0,-0.0319,-0.0314,-0.0316,-0.0309,-0.0303,-0.0287,-0.0292,-0.0278,-0.0261,-0.0272,-0.0255,-0.0263,-0.0261,-0.0252,-0.0247,-0.0248,-0.0227,-0.0238,-0.0237,-0.0227,-0.0229,-0.0227,-0.0225,-0.0252,-0.0252,-0.0252,0,0,-0.0311,-0.0323,-0.0315,-0.0305,-0.0287,-0.028,-0.0274,-0.0262,-0.0255,-0.0238,-0.0247,-0.0247,-0.0236,-0.0236,-0.0234,-0.0223,-0.0223,-0.0228,-0.0205,-0.0208,-0.0205,-0.0203,-0.0184,-0.0181,-0.0223,-0.0223,-0.0223,0,-0.0312,-0.0305,-0.0308,-0.0292,-0.0278,-0.0275,-0.0256,-0.0246,-0.023,-0.0222,-0.0227,-0.0225,-0.0226,-0.0216,-0.0214,-0.0219,-0.0215,-0.0211,-0.0205,-0.0203,-0.0202,-0.0183,-0.0179,-0.0222,-0.0223,-0.0223,-0.0223,0,-0.0297,-0.0285,-0.0277,-0.0259,-0.0249,-0.023,-0.0214,-0.0203,-0.0196,-0.0188,-0.0179,-0.0188,-0.0186,-0.0191,-0.0196,-0.0188,-0.0187,-0.0207,-0.0208,-0.0198,-0.0179,-0.0175,-0.0221,-0.0222,-0.0222,-0.0222,0,0,-0.0302,-0.0272,-0.0267,-0.0248,-0.0229,-0.0214,-0.0189,-0.0164,-0.0143,-0.0143,-0.0122,-0.0129,-0.0144,-0.0143,-0.0159,-0.016,-0.0144,-0.0175,-0.0175,-0.0152,-0.0134,-0.0103,-0.0097,-0.0168,-0.0168,-0.0167,-0.0121,0,-0.0282,-0.0242,-0.0237,-0.0197,-0.0173,-0.0167,-0.0141,-0.0123,-0.0109,-0.0089,-0.0103,-0.0092,-0.0122,-0.0123,-0.0131,-0.0145,-0.0136,-0.0154,-0.0149,-0.0148,-0.012,-0.0092,-0.0053,-0.0005,-0.0117,-0.0117,-0.0116,0,-0.0265,-0.0234,-0.0197,-0.0154,-0.0146,-0.0124,-0.0088,-0.0068,-0.0046,-0.0037,-0.004,-0.005,-0.0052,-0.008,-0.009,-0.0102,-0.011,-0.012,-0.0119,-0.0092,-0.0112,-0.0036,0.0005,-0.0052,-0.0111,-0.0111,-0.0112,0,-0.0256,-0.0206,-0.0174,-0.0161,-0.0117,-0.0096,-0.0076,-0.005,-0.0024,-0.0005,0.0018,-0.0002,0.0006,-0.0024,-0.0042,-0.0067,-0.0043,-0.0084,-0.0058,-0.0056,-0.002,-0.0015,-0.0029,-0.0079,-0.0079,-0.0079,-0.0079,0,-0.0236,-0.0206,-0.0161,-0.0141,-0.0088,-0.0078,-0.0032,-0.001,0.0018,0.0065,0.0042,0.0084,0.0021,0.0026,-0.0014,-0.0011,-0.0021,-0.0036,-0.004,-0.0012,-0.0007,-0.0054,-0.0091,-0.0077,-0.0077,-0.0078,-0.0078,0,-0.0232,-0.0208,-0.0163,-0.0108,-0.0082,-0.0052,0.0006,0.0039,0.0063,0.0126,0.0137,0.0155,0.0178,0.013,0.0103,0.0049,0.0019,0.0037,0.0088,0.009,0.0042,0.0005,0.0021,-0.0009,0.0065,0.0066,0.0067,0,-0.0226,-0.02,-0.0137,-0.0097,-0.0067,-0.0014,0.0031,0.0061,0.0101,0.0188,0.0225,0.027,0.034,0.0311,0.0234,0.019,0.0106,0.0159,0.0112,0.0065,0.0019,-0.0008,-0.0037,0.0171,0.0173,0.0174,0.0175,0,-0.02,-0.0187,-0.0149,-0.0069,-0.0014,0.0048,0.0115,0.0154,0.0206,0.0293,0.041,0.0479,0.0483,0.0481,0.04,0.0335,0.0131,0.0186,0.0118,0.0097,0.0086,0.0048,0.0123,0.0188,0.0186,0.0185,0.0185,0.0184,-0.0182,-0.0154,-0.0103,-0.0032,0.0041,0.0121,0.018,0.0265,0.0369,0.053,0.0564,0.0737,0.0675,0.0597,0.0478,0.0282,0.0262,0.0213,0.0173,0.0151,0.0117,0.0234,0.0298,0.0298,0.0297,0.0297,0.0297,0,-0.0144,-0.0115,-0.0054,0.0038,0.0129,0.0153,0.0253,0.0332,0.0492,0.068,0.083,0.095,0.087,0.0706,0.0462,0.0302,0.0203,0.0196,0.015,0.0118,0.0214,0.0211,0.0283,0.0283,0.0283,0.0283,0.0283,0.0283,-0.0121,-0.0068,-0.0044,0.0105,0.0182,0.03,0.0362,0.0498,0.0647,0.0926,0.1102,0.1201,0.1093,0.0651,0.0342,0.0245,0.0104,0.0106,0.0017,0.0061,0.0058,0.0056,0.0043,0.0078,0.0078,-0.0058,-0.0059,-0.006]}],[{"header":{"parameterUnit":"m.s-1","parameterCategory":2,"la1":30.2991,"la2":30.254,"lo1":-89.0895,"lo2":-89.0444,"dy":0.0017,"dx":0.0017,"nx":28,"ny":28,"refTime":"2024-03-15T09:00:00:Z","depth":"2","parameterNumber":2,"parameterNumberName":"U-component_of_CURRENTS"},"data":[0,0,0,0,0,0,0,0,0,0,0,0,0,0,0,0,0,0,0,0,0,0,0,0,0,0,0,0,0,0,0,0,0,0,0,0,0,0,0,0,0,0,0,0,0,0,0,0,0,0,0,0,0,0,0,0,0,0,0.147,0.1471,0,0.1482,0.1482,0.1481,0.1461,0.1461,0.1462,0.1462,0.1489,0.1489,0.149,0,0,0,0,0,0,0,0,0,0,0,0,0,0.1448,0.1447,0.147,0.1471,0.1472,0.1482,0.1482,0.1481,0.1461,0.1461,0.1462,0.1462,0.1489,0.1489,0.149,0,0,0,0,0,0,0,0,0,0,0,0,0,0.145,0.1447,0.147,0.147,0.147,0.1482,0.1482,0.1481,0.1461,0.1461,0.1462,0.1462,0.1488,0.1489,0.149,0.1492,0,0,0.1493,0.1493,0,0,0,0,0,0,0,0,0.145,0.145,0.1469,0.147,0.1471,0.1478,0.1484,0.1488,0.1461,0.1456,0.1462,0.1462,0.1492,0.1493,0.1482,0.1493,0.1495,0.1493,0.1494,0.1494,0.1494,0,0,0,0,0,0,0,0.145,0.1449,0.1466,0.147,0.1471,0.1476,0.1475,0.1484,0.1466,0.1456,0.1457,0.1472,0.1492,0.1481,0.1483,0.1495,0.1493,0.1494,0.1494,0.1495,0.157,0.1572,0,0,0,0,0,0,0.1464,0.1449,0.1466,0.1467,0.147,0.1477,0.1476,0.1468,0.1466,0.1468,0.1472,0.1471,0.1479,0.1482,0.1484,0.1523,0.1494,0.1495,0.1495,0.1569,0.1571,0.1572,0,0,0,0,0,0,0.1463,0.1465,0.1465,0.1467,0.1468,0.1478,0.1469,0.1469,0.1455,0.1479,0.148,0.146,0.148,0.1482,0.1511,0.1523,0.1495,0.1496,0.1567,0.157,0.1572,0.1578,0,0,0,0,0,0,0.1462,0.1464,0.1466,0.1467,0.1469,0.1469,0.147,0.1469,0.1469,0.1468,0.147,0.1472,0.148,0.151,0.1512,0.1523,0.1497,0.1565,0.1568,0.1571,0.1576,0.158,0.1584,0,0,0,0,0,0.1461,0.146,0.1466,0.1469,0.147,0.147,0.1469,0.1472,0.1469,0.1459,0.1481,0.1472,0.1529,0.1512,0.1514,0.1526,0.1564,0.1567,0.1571,0.1574,0.1579,0.1584,0,0,0,0,0,0,0.1446,0.1459,0.1465,0.1466,0.147,0.1469,0.1474,0.1468,0.1473,0.1487,0.1487,0.1492,0.152,0.1528,0.1509,0.156,0.1546,0.155,0.1548,0.1553,0.1557,0.1563,0.1497,0,0,0,0,0,0.1449,0.1452,0.1462,0.1463,0.1468,0.1468,0.147,0.1477,0.1486,0.1486,0.1499,0.1521,0.1534,0.1548,0.1565,0.159,0.1601,0.1603,0.1607,0.161,0.1619,0.1642,0.1648,0.1583,0.1583,0.1583,0,0,0.1446,0.1455,0.1457,0.1462,0.1466,0.1474,0.1466,0.1479,0.1491,0.1493,0.1518,0.1532,0.1544,0.1576,0.1589,0.1585,0.1638,0.1614,0.1616,0.1624,0.1646,0.1652,0.1657,0.1585,0.1585,0.1585,0,0,0.1445,0.1447,0.1453,0.1454,0.1478,0.1486,0.1488,0.1501,0.1508,0.1536,0.1545,0.1574,0.1593,0.1613,0.1619,0.1657,0.1653,0.166,0.1686,0.1708,0.1713,0.1717,0.1746,0.1753,0.1666,0.1666,0.1666,0,0.145,0.1449,0.1454,0.1459,0.1474,0.1488,0.1501,0.1507,0.1534,0.155,0.1553,0.16,0.1611,0.1642,0.1661,0.1664,0.1677,0.166,0.1711,0.1716,0.172,0.1748,0.1756,0.1667,0.1667,0.1667,0.1667,0,0.1448,0.1452,0.1454,0.147,0.1484,0.1497,0.1522,0.1545,0.1566,0.1577,0.1617,0.1643,0.1672,0.1678,0.1679,0.172,0.1719,0.1705,0.1692,0.1727,0.1755,0.1762,0.1668,0.1668,0.1668,0.1668,0,0,0.1441,0.1455,0.1452,0.146,0.1496,0.15,0.1543,0.1573,0.1593,0.1628,0.1658,0.1689,0.1707,0.1718,0.1729,0.1753,0.1797,0.1747,0.1748,0.1764,0.1852,0.1776,0.1777,0.1785,0.1787,0.1788,0.1861,0,0.144,0.1452,0.1465,0.1479,0.1492,0.1525,0.1553,0.159,0.1623,0.1659,0.169,0.1719,0.1718,0.174,0.1765,0.1789,0.1817,0.1779,0.1827,0.1829,0.1747,0.1783,0.1617,0.1661,0.1868,0.1869,0.187,0,0.1427,0.1443,0.1464,0.1489,0.1497,0.1514,0.1572,0.1606,0.1662,0.1688,0.1734,0.1749,0.1804,0.1791,0.1856,0.183,0.1849,0.1862,0.1864,0.1796,0.1767,0.1661,0.1667,0.1883,0.1882,0.1881,0.188,0,0.141,0.143,0.1451,0.1457,0.1499,0.1522,0.1559,0.1618,0.1652,0.1719,0.1748,0.1798,0.1843,0.1868,0.1894,0.1882,0.1953,0.1938,0.189,0.1886,0.1756,0.1737,0.1983,0.1983,0.1983,0.1982,0.1982,0,0.139,0.1396,0.1441,0.1442,0.1479,0.1517,0.1559,0.1609,0.1675,0.1713,0.1766,0.1797,0.1863,0.19,0.1914,0.1924,0.1971,0.1906,0.1899,0.1755,0.1735,0.1934,0.1927,0.1985,0.1984,0.1984,0.1983,0,0.135,0.1378,0.1403,0.1451,0.147,0.1502,0.1562,0.1584,0.166,0.1723,0.1747,0.1821,0.1871,0.1914,0.197,0.195,0.1962,0.1951,0.178,0.1751,0.1883,0.1876,0.1921,0.1919,0.1917,0.1916,0.1914,0,0.133,0.1344,0.1403,0.1426,0.1445,0.149,0.1517,0.1586,0.1615,0.1718,0.1741,0.1815,0.1828,0.1881,0.1872,0.1885,0.1938,0.1733,0.1674,0.1887,0.1877,0.1873,0.1869,0.1519,0.1515,0.1511,0.1508,0,0.1306,0.1333,0.1343,0.1402,0.1432,0.1451,0.1497,0.1512,0.1595,0.1633,0.1674,0.1688,0.1748,0.1672,0.1697,0.1679,0.1714,0.1659,0.1932,0.1548,0.151,0.15,0.1509,0.1477,0.148,0.1482,0.1484,0.1485,0.1285,0.129,0.1321,0.136,0.1403,0.1409,0.1386,0.1421,0.1444,0.1477,0.1546,0.1521,0.154,0.148,0.1434,0.1416,0.1546,0.1469,0.148,0.1494,0.1422,0.1382,0.1312,0.1314,0.1316,0.1318,0.1319,0,0.1265,0.1261,0.1284,0.1308,0.1314,0.1362,0.1364,0.131,0.1291,0.1337,0.134,0.1215,0.1158,0.1193,0.1108,0.1104,0.1095,0.1059,0.103,0.1063,0.1091,0.0998,0.0776,0.0774,0.0773,0.0771,0,0,0.1243,0.1238,0.1234,0.1219,0.1235,0.1193,0.1171,0.1115,0.1108,0.1054,0.1033,0.1099,0.114,0.0943,0.0914,0.0827,0.0939,0.0791,0.1226,0.1224,0.1251,0.1326,0.1219,0,0,0,0,0]},{"header":{"parameterUnit":"m.s-1","parameterCategory":2,"la1":30.2991,"la2":30.254,"lo1":-89.0895,"lo2":-89.0444,"dy":0.0017,"dx":0.0017,"nx":28,"ny":28,"refTime":"2024-03-15T09:00:00:Z","depth":"2","parameterNumber":3,"parameterNumberName":"V-component_of_CURRENTS"},"data":[0,0,0,0,0,0,0,0,0,0,0,0,0,0,0,0,0,0,0,0,0,0,0,0,0,0,0,0,0,0,0,0,0,0,0,0,0,0,0,0,0,0,0,0,0,0,0,0,0,0,0,0,0,0,0,0,0,0,0.0161,0.0161,0,0.0157,0.0157,0.0157,0.0151,0.0151,0.015,0.015,0.0112,0.0112,0.0111,0,0,0,0,0,0,0,0,0,0,0,0,0,0.0159,0.0159,0.0161,0.0161,0.016,0.0157,0.0157,0.0157,0.0151,0.015,0.015,0.015,0.0113,0.0112,0.0111,0,0,0,0,0,0,0,0,0,0,0,0,0,0.016,0.0159,0.0161,0.0155,0.0154,0.0157,0.0157,0.0157,0.0151,0.015,0.015,0.0149,0.0113,0.0112,0.0111,0.0116,0,0,0.0108,0.0108,0,0,0,0,0,0,0,0,0.016,0.0161,0.0156,0.0155,0.0154,0.0151,0.0142,0.0141,0.0151,0.0155,0.015,0.0149,0.0121,0.0119,0.0124,0.0114,0.0112,0.0108,0.0107,0.0107,0.0107,0,0,0,0,0,0,0,0.016,0.0161,0.0162,0.0156,0.0155,0.015,0.015,0.0142,0.0143,0.0155,0.0154,0.0149,0.012,0.0125,0.0123,0.0112,0.0108,0.0107,0.0106,0.0106,0.0087,0.0087,0,0,0,0,0,0,0.0156,0.0161,0.0162,0.0162,0.0153,0.015,0.015,0.0155,0.0144,0.0141,0.0149,0.0148,0.0127,0.0124,0.0122,0.0123,0.0107,0.0106,0.0105,0.0087,0.0087,0.0087,0,0,0,0,0,0,0.0156,0.0157,0.0162,0.0158,0.0158,0.0151,0.0156,0.0155,0.0161,0.0139,0.0136,0.0155,0.0127,0.0123,0.0111,0.0122,0.0105,0.0105,0.0087,0.0087,0.0087,0.0128,0,0,0,0,0,0,0.0156,0.0157,0.0161,0.0158,0.0158,0.0167,0.0156,0.0155,0.0157,0.0156,0.0143,0.0139,0.0126,0.0113,0.011,0.012,0.0104,0.0087,0.0087,0.0087,0.0127,0.013,0.0132,0,0,0,0,0,0.0156,0.0165,0.0161,0.0161,0.0164,0.0167,0.0168,0.0162,0.0158,0.0164,0.015,0.014,0.0112,0.0112,0.0109,0.0119,0.0087,0.0087,0.0087,0.0125,0.0129,0.0132,0,0,0,0,0,0,0.0164,0.0165,0.0161,0.0169,0.0168,0.0165,0.017,0.0166,0.0162,0.0156,0.0141,0.0136,0.0131,0.0117,0.0118,0.0112,0.0098,0.0097,0.0128,0.0131,0.0134,0.0145,0.0103,0,0,0,0,0,0.0167,0.0176,0.0172,0.0178,0.018,0.0177,0.0177,0.017,0.0164,0.0163,0.0154,0.014,0.0131,0.0124,0.0114,0.0111,0.0099,0.0114,0.0116,0.0119,0.0125,0.0117,0.012,0.0088,0.0088,0.0088,0,0,0.0171,0.0171,0.0176,0.018,0.0181,0.019,0.0177,0.0177,0.0184,0.0158,0.0167,0.015,0.0132,0.013,0.0126,0.0118,0.0121,0.0119,0.0122,0.0127,0.0118,0.0121,0.0124,0.0088,0.0088,0.0088,0,0,0.0184,0.0185,0.0198,0.0203,0.02,0.0196,0.0198,0.0196,0.0198,0.0198,0.0181,0.017,0.016,0.0149,0.0142,0.0153,0.0137,0.0149,0.0172,0.0165,0.0167,0.017,0.0156,0.0157,0.0149,0.0149,0.0149,0,0.0184,0.0205,0.0201,0.0216,0.0222,0.0203,0.0218,0.0219,0.0211,0.0217,0.0203,0.0192,0.0172,0.0173,0.0173,0.0161,0.0152,0.0163,0.0169,0.0172,0.0173,0.0159,0.0159,0.0151,0.0151,0.0151,0.015,0,0.0211,0.0227,0.0237,0.0251,0.0255,0.0264,0.026,0.0262,0.0256,0.0256,0.0257,0.023,0.0222,0.0214,0.0196,0.02,0.0188,0.0176,0.0165,0.0179,0.0163,0.0163,0.0154,0.0153,0.0153,0.0152,0,0,0.0217,0.0249,0.0255,0.0274,0.0275,0.0285,0.0293,0.0303,0.0318,0.0303,0.0325,0.0298,0.0281,0.0271,0.0246,0.0235,0.0232,0.0212,0.0211,0.0205,0.0213,0.0206,0.0205,0.0224,0.0225,0.0225,0.0196,0,0.024,0.028,0.0287,0.0323,0.0344,0.0337,0.0352,0.0354,0.0352,0.0366,0.034,0.0347,0.0305,0.0301,0.0282,0.0249,0.0234,0.0241,0.0194,0.0193,0.019,0.0205,0.0217,0.0193,0.0196,0.0195,0.0195,0,0.0271,0.0292,0.0331,0.037,0.038,0.0395,0.0417,0.0428,0.0434,0.0433,0.0424,0.0408,0.0389,0.0352,0.03,0.0308,0.0263,0.0233,0.0231,0.0212,0.0186,0.0178,0.0193,0.0195,0.0195,0.0195,0.0195,0,0.029,0.0332,0.0365,0.0378,0.0408,0.0427,0.044,0.045,0.0472,0.0476,0.0494,0.0462,0.0454,0.0398,0.0328,0.0317,0.0274,0.025,0.02,0.0199,0.0194,0.0192,0.0216,0.0216,0.0216,0.0216,0.0216,0,0.0323,0.0355,0.0379,0.0403,0.0444,0.0454,0.0501,0.0504,0.0526,0.0565,0.0529,0.0551,0.0467,0.0432,0.0355,0.0281,0.0292,0.0211,0.0195,0.0207,0.0207,0.0195,0.0193,0.0215,0.0215,0.0215,0.0215,0,0.0353,0.0367,0.0407,0.0442,0.0458,0.0487,0.0546,0.0583,0.0589,0.0636,0.0644,0.0622,0.0577,0.049,0.0402,0.0324,0.025,0.0219,0.0235,0.0223,0.017,0.017,0.0162,0.0161,0.0161,0.0161,0.016,0,0.0374,0.0396,0.0438,0.0462,0.0484,0.0534,0.0577,0.0607,0.065,0.0687,0.0717,0.069,0.0683,0.0549,0.0415,0.0287,0.026,0.0203,0.0182,0.0181,0.0167,0.0168,0.0168,0.0186,0.0186,0.0186,0.0186,0,0.041,0.0421,0.0459,0.0501,0.0547,0.0613,0.0676,0.072,0.0762,0.0801,0.0843,0.0841,0.0721,0.06,0.042,0.0328,0.0224,0.0199,0.0203,0.02,0.0202,0.0189,0.0189,0.0186,0.0186,0.0186,0.0186,0.0186,0.0435,0.0468,0.0508,0.0551,0.0602,0.0681,0.0744,0.0813,0.0887,0.0934,0.0928,0.0907,0.0775,0.0542,0.0396,0.0228,0.0236,0.0165,0.0166,0.0166,0.0176,0.0178,0.0159,0.0159,0.0159,0.0158,0.0158,0,0.0463,0.0507,0.0555,0.0615,0.0673,0.0697,0.0804,0.0862,0.0951,0.0975,0.0997,0.0853,0.0724,0.0558,0.0323,0.0189,0.0171,0.013,0.0143,0.0145,0.0146,0.0155,0.0132,0.0131,0.0131,0.013,0,0,0.0486,0.0541,0.0571,0.0661,0.0705,0.0799,0.086,0.0935,0.0974,0.0996,0.0967,0.0934,0.0757,0.0576,0.0404,0.0268,0.023,0.0231,0.0269,0.0308,0.031,0.0186,0.0204,0,0,0,0,0]}],[{"header":{"parameterUnit":"m.s-1","parameterCategory":2,"la1":30.2991,"la2":30.254,"lo1":-89.0895,"lo2":-89.0444,"dy":0.0017,"dx":0.0017,"nx":28,"ny":28,"refTime":"2024-03-15T09:00:00:Z","depth":"4","parameterNumber":2,"parameterNumberName":"U-component_of_CURRENTS"},"data":[0,0,0,0,0,0,0,0,0,0,0,0,0,0,0,0,0,0,0,0,0,0,0,0,0,0,0,0,0,0,0,0,0,0,0,0,0,0,0,0,0,0,0,0,0,0,0,0,0,0,0,0,0,0,0,0,0,0,0.0679,0.068,0,0.0703,0.0703,0.0703,0.0728,0.0729,0.0729,0.073,0.079,0.0791,0.0792,0,0,0,0,0,0,0,0,0,0,0,0,0,0.0659,0.0659,0.0679,0.068,0.068,0.0703,0.0703,0.0703,0.0728,0.0729,0.073,0.0731,0.079,0.0791,0.0792,0,0,0,0,0,0,0,0,0,0,0,0,0,0.0669,0.0659,0.0679,0.0699,0.0701,0.0703,0.0703,0.0703,0.0728,0.0729,0.073,0.0731,0.079,0.0791,0.0792,0.0778,0,0,0.0796,0.0797,0,0,0,0,0,0,0,0,0.0669,0.067,0.0695,0.0698,0.07,0.0717,0.0718,0.0731,0.0727,0.0713,0.073,0.0732,0.0771,0.0774,0.0769,0.0781,0.0784,0.0796,0.0797,0.0798,0.0798,0,0,0,0,0,0,0,0.0668,0.0669,0.0684,0.0696,0.0699,0.0708,0.071,0.072,0.0733,0.0714,0.0717,0.0726,0.0772,0.0768,0.0771,0.0784,0.0796,0.0798,0.0798,0.0799,0.0874,0.0875,0,0,0,0,0,0,0.0672,0.0668,0.0684,0.0685,0.0692,0.0708,0.071,0.0707,0.0732,0.0738,0.0725,0.0728,0.0765,0.077,0.0774,0.0831,0.0798,0.0799,0.08,0.0873,0.0874,0.0875,0,0,0,0,0,0,0.0671,0.0673,0.0683,0.0681,0.0684,0.0707,0.0704,0.0707,0.0723,0.0741,0.0747,0.0741,0.0766,0.0772,0.0805,0.0831,0.08,0.0801,0.0871,0.0873,0.0875,0.09,0,0,0,0,0,0,0.067,0.0672,0.0678,0.0681,0.0684,0.0697,0.0703,0.0707,0.0728,0.0731,0.0756,0.0761,0.0768,0.0803,0.0806,0.0833,0.0802,0.087,0.0872,0.0874,0.0898,0.0903,0.0907,0,0,0,0,0,0.0669,0.0669,0.0677,0.068,0.0689,0.0697,0.0699,0.0717,0.0728,0.0735,0.0758,0.0761,0.082,0.0805,0.0808,0.0836,0.0869,0.0871,0.0874,0.0896,0.0902,0.0907,0,0,0,0,0,0,0.0662,0.0672,0.0681,0.0684,0.0699,0.0704,0.0716,0.0725,0.0745,0.076,0.077,0.0777,0.0815,0.0822,0.0805,0.0865,0.0847,0.0851,0.0863,0.0868,0.0873,0.0866,0.0803,0,0,0,0,0,0.0663,0.0668,0.068,0.0686,0.0694,0.0707,0.0716,0.0731,0.0748,0.0758,0.0779,0.0804,0.0824,0.0844,0.086,0.0889,0.0893,0.0913,0.0917,0.0921,0.0919,0.0946,0.0953,0.0884,0.0884,0.0884,0,0,0.0663,0.0671,0.0675,0.0686,0.0698,0.071,0.0715,0.0737,0.0756,0.0762,0.08,0.0817,0.0834,0.0869,0.0888,0.0883,0.0944,0.0924,0.0927,0.0923,0.095,0.0956,0.0962,0.0886,0.0885,0.0885,0,0,0.0664,0.0672,0.0679,0.069,0.0717,0.0727,0.0738,0.0759,0.0778,0.0811,0.0823,0.0856,0.089,0.0906,0.0917,0.0955,0.0962,0.0971,0.0994,0.1021,0.1026,0.1031,0.105,0.1056,0.0979,0.0979,0.0979,0,0.0671,0.0673,0.0684,0.0694,0.071,0.0735,0.0751,0.0767,0.0802,0.0822,0.0833,0.0889,0.0904,0.094,0.0958,0.0964,0.098,0.0971,0.1026,0.1031,0.1035,0.1053,0.1059,0.0981,0.0981,0.098,0.098,0,0.0672,0.0682,0.0688,0.0709,0.0727,0.0746,0.0774,0.0805,0.0836,0.0855,0.0906,0.0928,0.0965,0.0978,0.098,0.1026,0.1027,0.1022,0.1009,0.1044,0.106,0.1066,0.0983,0.0982,0.0982,0.0982,0,0,0.0667,0.0686,0.069,0.0702,0.074,0.0752,0.0794,0.0832,0.0862,0.0905,0.0943,0.0981,0.1004,0.1017,0.1032,0.1056,0.1103,0.106,0.1061,0.1072,0.1165,0.1082,0.108,0.1114,0.1115,0.1116,0.1165,0,0.067,0.0685,0.0699,0.0725,0.0736,0.0775,0.0807,0.085,0.0892,0.0936,0.0972,0.1012,0.1016,0.1045,0.1071,0.1092,0.1121,0.109,0.1135,0.1136,0.1052,0.1085,0.112,0.117,0.1171,0.1172,0.1173,0,0.0663,0.0678,0.0699,0.0732,0.0743,0.0768,0.0832,0.0865,0.093,0.0967,0.102,0.1045,0.1095,0.1091,0.115,0.1135,0.1156,0.1167,0.1169,0.1083,0.1064,0.1128,0.1184,0.1183,0.1183,0.1182,0.1181,0,0.0643,0.0674,0.0693,0.0703,0.0749,0.0779,0.0815,0.088,0.0915,0.0995,0.1034,0.1087,0.1129,0.1161,0.1192,0.1182,0.1246,0.1233,0.1177,0.1172,0.122,0.1214,0.1275,0.1275,0.1275,0.1275,0.1275,0,0.0625,0.064,0.0687,0.0695,0.0734,0.0773,0.0823,0.0874,0.0942,0.0985,0.1052,0.109,0.1152,0.1193,0.121,0.1211,0.1267,0.1182,0.1179,0.1231,0.1226,0.1225,0.1218,0.1277,0.1277,0.1276,0.1276,0,0.0586,0.0616,0.064,0.0696,0.0722,0.0752,0.0825,0.0854,0.0935,0.0997,0.1026,0.1108,0.116,0.1207,0.126,0.1228,0.1239,0.1229,0.1286,0.1286,0.1142,0.1136,0.1162,0.1159,0.1157,0.1155,0.1154,0,0.0563,0.0572,0.0636,0.0659,0.0687,0.0739,0.0773,0.0851,0.0881,0.0994,0.1012,0.1095,0.1143,0.1151,0.1202,0.1227,0.1216,0.121,0.1164,0.1136,0.1131,0.1129,0.1126,0.115,0.115,0.1149,0.1149,0,0.0525,0.0555,0.0575,0.0623,0.0662,0.0692,0.0746,0.0762,0.085,0.0933,0.0976,0.101,0.1067,0.1099,0.1134,0.1147,0.1201,0.1187,0.1191,0.1148,0.1122,0.1119,0.1119,0.1141,0.1142,0.1143,0.1143,0,0.0505,0.0507,0.0543,0.0579,0.0622,0.0632,0.0665,0.07,0.0742,0.0866,0.0876,0.0973,0.1052,0.1058,0.1086,0.1095,0.1074,0.1029,0.1041,0.105,0.0989,0.0938,0.09,0,0,0,0,0,0.0484,0.0478,0.0498,0.0524,0.0559,0.0587,0.064,0.0671,0.076,0.0767,0.082,0.0871,0.0918,0.096,0.0948,0.1033,0.1075,0.1012,0.1027,0.11,0.1108,0.1047,0,0,0,0,0,0,0.0466,0.0481,0.0477,0.0473,0.0483,0.0508,0.054,0.0595,0.06,0.0701,0.073,0.0811,0.0869,0.0923,0.0932,0.0946,0.0933,0.1073,0.107,0.1095,0.1103,0.111,0.105,0,0,0,0,0]},{"header":{"parameterUnit":"m.s-1","parameterCategory":2,"la1":30.2991,"la2":30.254,"lo1":-89.0895,"lo2":-89.0444,"dy":0.0017,"dx":0.0017,"nx":28,"ny":28,"refTime":"2024-03-15T09:00:00:Z","depth":"4","parameterNumber":3,"parameterNumberName":"V-component_of_CURRENTS"},"data":[0,0,0,0,0,0,0,0,0,0,0,0,0,0,0,0,0,0,0,0,0,0,0,0,0,0,0,0,0,0,0,0,0,0,0,0,0,0,0,0,0,0,0,0,0,0,0,0,0,0,0,0,0,0,0,0,0,0,0.0202,0.0202,0,0.0204,0.0204,0.0204,0.0205,0.0205,0.0205,0.0204,0.019,0.019,0.0189,0,0,0,0,0,0,0,0,0,0,0,0,0,0.019,0.0191,0.0202,0.0202,0.0202,0.0204,0.0204,0.0204,0.0205,0.0205,0.0205,0.0204,0.019,0.019,0.0189,0,0,0,0,0,0,0,0,0,0,0,0,0,0.0195,0.0191,0.0202,0.0202,0.0202,0.0204,0.0204,0.0204,0.0205,0.0205,0.0205,0.0204,0.019,0.019,0.0189,0.0189,0,0,0.0188,0.0188,0,0,0,0,0,0,0,0,0.0195,0.0196,0.0202,0.0202,0.0202,0.0203,0.0195,0.0198,0.0205,0.0205,0.0204,0.0204,0.0192,0.0192,0.0194,0.0189,0.0188,0.0188,0.0188,0.0187,0.0187,0,0,0,0,0,0,0,0.0194,0.0195,0.0204,0.0202,0.0202,0.0199,0.0199,0.0195,0.02,0.0205,0.0204,0.0203,0.0192,0.0194,0.0194,0.0188,0.0188,0.0188,0.0187,0.0187,0.0182,0.0182,0,0,0,0,0,0,0.0193,0.0195,0.0203,0.0204,0.0197,0.0199,0.02,0.0204,0.02,0.0199,0.0203,0.0203,0.0195,0.0194,0.0193,0.0202,0.0187,0.0187,0.0187,0.0182,0.0182,0.0182,0,0,0,0,0,0,0.0193,0.0194,0.0203,0.0198,0.0199,0.0199,0.0203,0.0204,0.0208,0.0199,0.0198,0.0207,0.0195,0.0194,0.0194,0.0201,0.0187,0.0186,0.0182,0.0182,0.0182,0.0214,0,0,0,0,0,0,0.0193,0.0194,0.02,0.0198,0.0199,0.0208,0.0204,0.0204,0.0206,0.0206,0.0202,0.02,0.0195,0.0195,0.0193,0.02,0.0186,0.0182,0.0182,0.0182,0.0213,0.0216,0.0218,0,0,0,0,0,0.0192,0.0203,0.02,0.0201,0.0206,0.0209,0.0209,0.0209,0.0207,0.0212,0.0208,0.0201,0.0195,0.0194,0.0193,0.02,0.0182,0.0182,0.0182,0.0212,0.0215,0.0218,0,0,0,0,0,0,0.0199,0.0203,0.0201,0.0211,0.021,0.0209,0.0215,0.0211,0.0213,0.0212,0.0205,0.0203,0.0205,0.0197,0.0196,0.0198,0.0186,0.0186,0.0209,0.0212,0.0214,0.0223,0.0186,0,0,0,0,0,0.0203,0.0213,0.0211,0.0218,0.0221,0.0217,0.0219,0.0216,0.0215,0.0216,0.0214,0.0209,0.0205,0.0204,0.02,0.0203,0.019,0.0205,0.0207,0.0209,0.0215,0.0201,0.0203,0.0184,0.0184,0.0184,0,0,0.0207,0.0211,0.0216,0.0221,0.0222,0.023,0.0219,0.0222,0.023,0.0213,0.0228,0.0218,0.0207,0.0211,0.0211,0.0206,0.0207,0.0209,0.0211,0.0216,0.0202,0.0203,0.0205,0.0184,0.0184,0.0184,0,0,0.022,0.0224,0.0237,0.024,0.0241,0.0239,0.024,0.0241,0.0244,0.0251,0.024,0.0237,0.0235,0.023,0.0226,0.0238,0.0219,0.0233,0.0254,0.0241,0.0243,0.0244,0.0228,0.0227,0.0235,0.0235,0.0235,0,0.0224,0.0242,0.024,0.0253,0.026,0.0245,0.0259,0.026,0.026,0.0266,0.026,0.0257,0.0246,0.0249,0.0252,0.0244,0.0231,0.0246,0.0245,0.0246,0.0246,0.0229,0.0229,0.0237,0.0237,0.0236,0.0236,0,0.0246,0.0262,0.027,0.0284,0.0289,0.0297,0.0297,0.0302,0.0302,0.0301,0.0306,0.0292,0.029,0.0283,0.0273,0.0273,0.0259,0.0249,0.024,0.025,0.0232,0.023,0.0239,0.0238,0.0238,0.0238,0,0,0.0252,0.028,0.0285,0.0301,0.0307,0.0315,0.0328,0.0337,0.0349,0.0344,0.036,0.0347,0.0335,0.0329,0.0311,0.03,0.029,0.0279,0.0277,0.0266,0.0258,0.0239,0.0236,0.0279,0.0279,0.0279,0.0242,0,0.027,0.0304,0.0312,0.0343,0.0361,0.036,0.0377,0.0381,0.0381,0.0392,0.0374,0.038,0.0353,0.0353,0.0336,0.0303,0.0288,0.0301,0.0246,0.0244,0.0229,0.0234,0.0278,0.024,0.024,0.024,0.0239,0,0.0291,0.0312,0.0347,0.0382,0.0391,0.0407,0.043,0.0443,0.0446,0.0447,0.0441,0.0425,0.041,0.0386,0.0336,0.0344,0.0305,0.0277,0.0274,0.0247,0.0223,0.0227,0.0237,0.0237,0.0237,0.0237,0.0237,0,0.0301,0.034,0.0371,0.0383,0.0414,0.0434,0.0451,0.0461,0.048,0.0483,0.0491,0.0464,0.0457,0.0407,0.0344,0.034,0.0285,0.0271,0.0218,0.0216,0.0229,0.0228,0.0237,0.0237,0.0237,0.0237,0.0237,0,0.032,0.0348,0.0383,0.0401,0.0443,0.0457,0.0499,0.0508,0.0526,0.0549,0.0522,0.0525,0.0461,0.042,0.0358,0.0283,0.0293,0.0224,0.0207,0.0243,0.0244,0.0228,0.0227,0.0236,0.0236,0.0236,0.0236,0,0.0331,0.0352,0.0392,0.0433,0.0452,0.0482,0.0537,0.0563,0.0573,0.0601,0.0604,0.0573,0.0518,0.0446,0.0365,0.0304,0.0233,0.0203,0.0248,0.0234,0.0169,0.017,0.0142,0.0141,0.014,0.014,0.0139,0,0.0338,0.036,0.0416,0.0443,0.0467,0.0518,0.0554,0.0585,0.0611,0.0627,0.0638,0.0599,0.0566,0.0438,0.0358,0.0239,0.0217,0.0175,0.0171,0.0174,0.016,0.0163,0.0165,0.0138,0.0138,0.0138,0.0137,0,0.0351,0.0373,0.0407,0.0463,0.0508,0.0562,0.0615,0.0635,0.0668,0.0677,0.0661,0.0598,0.0534,0.0434,0.0342,0.0255,0.02,0.0167,0.0168,0.0163,0.0168,0.0156,0.0159,0.0135,0.0135,0.0135,0.0136,0,0.036,0.0385,0.0431,0.0481,0.0538,0.0591,0.062,0.0651,0.0677,0.0687,0.0679,0.0611,0.0574,0.0442,0.0358,0.0271,0.0244,0.0205,0.0204,0.0206,0.0231,0.0248,0.0227,0,0,0,0,0,0.0366,0.0398,0.0445,0.05,0.0557,0.0592,0.0653,0.0675,0.0703,0.0691,0.0685,0.0624,0.0498,0.0447,0.0356,0.034,0.0229,0.0229,0.0183,0.012,0.0123,0.014,0,0,0,0,0,0,0.0371,0.0416,0.0443,0.0509,0.0546,0.0611,0.0652,0.067,0.0664,0.0673,0.0609,0.0583,0.0465,0.0545,0.0347,0.0322,0.0276,0.0176,0.0173,0.0118,0.0121,0.0123,0.0142,0,0,0,0,0]}]]